Location: Casteau
(50.5142°N, 4.0161°E)
Time: 02:15:55
(UTC+00:00)

CENTAUR R/B - Pass Details

Date: 18 September 2020
Orbit: 755 x 1433 km, 63.4° (Epoch: 02 October)

Event Time Altitude Azimuth Distance (km) Brightness Sun altitude
Rises 21:13:12 0° 315° (NW) 4,164 7.0 -29.6°
Reaches altitude 10° 21:16:01 10° 309° (NW) 3,280 6.1 -29.9°
Maximum altitude 21:23:31 43° 242° (WSW) 1,848 3.9 -30.7°
Enters shadow 21:25:43 37° 209° (SSW) 2,042 3.9 -30.9°
